全部
Wiluna Airport (Wiluna, Western Australia) WUN 天氣
|
Wiluna, Western Australia (WUN / YWLU)
晴天
微風 |
|
13 °C |
WUN終端機場天氣預報
| Date | Time (AWST) | Flight Rules | Wind Dir. | Speed | Type | Height AGL (ft) | Visibility | Remarks | ||||||
|---|---|---|---|---|---|---|---|---|---|---|---|---|---|---|
WUN近期METAR歷史資料
| Date | Time (AWST) | Flight Rules | Wind Dir. | Speed | Type | Height AGL (ft) | Visibility | Temp (°C) | Temp (°F) | Dew Point (°C) | Dew Point (°F) | Rel. Humid. | Pressure | Density Altitude | Remarks |
|---|---|---|---|---|---|---|---|---|---|---|---|---|---|---|---|
| 02-五月 | 23:00 | VFR | 130° | 8 kt | 10000 meters | 13° | 55° | 1° | 33° | 44% | 1022 mb | 1,387 ft | |||
| 02-五月 | 22:00 | VFR | 130° | 9 kt | 10000 meters | 13° | 55° | 1° | 33° | 44% | 1022 mb | 1,387 ft | |||
| 02-五月 | 21:00 | VFR | 130° | 9 kt | 10000 meters | 14° | 57° | -1° | 30° | 36% | 1021 mb | 1,536 ft | |||
| 02-五月 | 20:00 | VFR | 130° | 9 kt | 10000 meters | 15° | 59° | -1° | 30° | 33% | 1021 mb | 1,656 ft | |||
| 02-五月 | 19:00 | VFR | 130° | 10 kt | 10000 meters | 16° | 60° | -2° | 28° | 29% | 1020 mb | 1,806 ft | |||
| 02-五月 | 18:00 | VFR | 130° | 9 kt | 10000 meters | 17° | 62° | -2° | 28° | 27% | 1019 mb | 1,956 ft | |||
| 02-五月 | 17:00 | VFR | 150° | 13 kt | 10000 meters | 19° | 66° | -2° | 28° | 24% | 1019 mb | 2,196 ft | |||
| 02-五月 | 16:00 | VFR | 150° | 11 kt | 10000 meters | 19° | 66° | -3° | 26° | 22% | 1019 mb | 2,196 ft | |||
| 02-五月 | 15:00 | VFR | 130° | 11 kt | 10000 meters | 19° | 66° | -3° | 26° | 22% | 1019 mb | 2,196 ft | |||
| 02-五月 | 14:00 | VFR | 150° | 12 kt | 10000 meters | 19° | 66° | -2° | 28° | 24% | 1019 mb | 2,196 ft | |||
| 02-五月 | 13:00 | VFR | 140° | 11 kt | 10000 meters | 18° | 64° | -3° | 26° | 24% | 1020 mb | 2,046 ft | |||
| 02-五月 | 12:00 | VFR | 110° | 11 kt | 10000 meters | 16° | 60° | -3° | 26° | 27% | 1021 mb | 1,776 ft | |||
| 02-五月 | 11:00 | VFR | 110° | 11 kt | 10000 meters | 15° | 59° | -1° | 30° | 33% | 1022 mb | 1,627 ft | |||
| 02-五月 | 10:00 | VFR | 130° | 12 kt | 10000 meters | 14° | 57° | -1° | 30° | 36% | 1023 mb | 1,477 ft | |||
| 02-五月 | 09:00 | VFR | 120° | 15 kt | 10000 meters | 12° | 53° | 0° | 32° | 44% | 1023 mb | 1,237 ft | |||
| 02-五月 | 08:00 | VFR | 130° | 14 kt | 10000 meters | 10° | 50° | 0° | 32° | 50% | 1022 mb | 1,027 ft | |||
| 02-五月 | 07:00 | VFR | 140° | 9 kt | 10000 meters | 9° | 48° | 0° | 32° | 53% | 1022 mb | 907 ft | |||
| 02-五月 | 06:00 | VFR | 130° | 8 kt | 10000 meters | 8° | 46° | 0° | 32° | 57% | 1021 mb | 816 ft | |||
| 02-五月 | 05:00 | VFR | 130° | 8 kt | 10000 meters | 9° | 48° | 0° | 32° | 53% | 1021 mb | 936 ft | |||
| 02-五月 | 04:00 | VFR | 130° | 10 kt | 10000 meters | 10° | 50° | 0° | 32° | 50% | 1020 mb | 1,086 ft | |||
| 02-五月 | 03:00 | VFR | 130° | 9 kt | 10000 meters | 10° | 50° | 0° | 32° | 50% | 1020 mb | 1,086 ft | |||
| 02-五月 | 02:00 | VFR | 150° | 10 kt | 10000 meters | 12° | 53° | 0° | 32° | 44% | 1021 mb | 1,296 ft | |||
| 02-五月 | 01:00 | VFR | 160° | 12 kt | 10000 meters | 12° | 53° | 2° | 35° | 50% | 1021 mb | 1,296 ft | |||
| 02-五月 | 00:00 | VFR | 160° | 13 kt | 10000 meters | 13° | 55° | 3° | 37° | 51% | 1020 mb | 1,446 ft |
登入
| 您的瀏覽器不支援. 升級您的瀏覽器 |
